Terminal Aerodrome Forecast
Issued by NWS Tallahassee, FL

Home | Current Version | Previous Version | Text Only | Print | Product List | Glossary On
Versions: 1 2 3 4 5 6 7 8 9 10 11 12 13 14 15 16 17 18 19 20 21 22 23 24
000
FTUS42 KTAE 211100
TAFTLH
TAF
KTLH 211120Z 2112/2212 02004KT P6SM FEW003
      TEMPO 2112/2113 6SM BR
     FM211400 04007KT P6SM FEW250
     FM220000 00000KT P6SM SCT250
     FM220600 29003KT 5SM BR OVC250=

USA.gov is the U.S. government's official web portal to all federal, state and local government web resources and services.